| time (UTC) | temp F | wind direction | speed MPH | gust MPH | rain 1hr in | rain 24hr in | rain mn in | humidity % | barometer mb |
| 20260507163345 | 56 | 317 | 8.0 | 13.0 | 0.00 | 0.37 | 0.00 | 61 | 1002.9 |
| 20260507161847 | 55 | 329 | 6.0 | 13.0 | 0.00 | 0.37 | 0.00 | 66 | 1003.2 |
| 20260507160355 | 55 | 325 | 5.0 | 13.0 | 0.00 | 0.37 | 0.00 | 66 | 1003.4 |
| 20260507154859 | 54 | 269 | 7.0 | 12.0 | 0.00 | 0.37 | 0.00 | 71 | 1003.5 |
| 20260507153344 | 54 | 304 | 10.0 | 14.0 | 0.00 | 0.37 | 0.00 | 70 | 1003.6 |
| 20260507151849 | 53 | 5 | 6.0 | 14.0 | 0.00 | 0.37 | 0.00 | 75 | 1003.8 |
| 20260507150411 | 53 | 36 | 10.0 | 14.0 | 0.00 | 0.37 | 0.00 | 74 | 1003.8 |
| 20260507144854 | 52 | 330 | 7.0 | 11.0 | 0.00 | 0.37 | 0.00 | 71 | 1004.1 |
| 20260507143343 | 51 | 330 | 7.0 | 12.0 | 0.00 | 0.37 | 0.00 | 72 | 1004.2 |
| 20260507141906 | 51 | 344 | 5.0 | 13.0 | 0.00 | 0.37 | 0.00 | 70 | 1004.4 |
| 20260507140349 | 50 | 5 | 6.0 | 12.0 | 0.00 | 0.37 | 0.00 | 56 | 1004.7 |
| 20260507134852 | 50 | 31 | 7.0 | 15.0 | 0.00 | 0.37 | 0.00 | 49 | 1004.5 |
| 20260507133340 | 49 | 346 | 6.0 | 9.0 | 0.00 | 0.37 | 0.00 | 31 | 1004.5 |
| 20260507131845 | 49 | 309 | 7.0 | 11.0 | 0.00 | 0.37 | 0.00 | 18 | 1004.6 |
| 20260507130348 | 48 | 309 | 4.0 | 10.0 | 0.00 | 0.37 | 0.00 | 3 | 1004.4 |
| 20260507124857 | 48 | 355 | 5.0 | 10.0 | 0.00 | 0.37 | 0.00 | 1 | 1004.1 |
| 20260507123400 | 48 | 5 | 7.0 | 11.0 | 0.00 | 0.37 | 0.00 | 1 | 1004.4 |
| 20260507121905 | 48 | 30 | 7.0 | 12.0 | 0.00 | 0.37 | 0.00 | 1 | 1004.5 |
| 20260507120352 | 48 | 327 | 4.0 | 8.0 | 0.00 | 0.37 | 0.00 | 1 | 1004.7 |
| 20260507114856 | 48 | 324 | 4.0 | 9.0 | 0.00 | 0.37 | 0.00 | 1 | 1004.9 |
| 20260507113357 | 48 | 315 | 4.0 | 9.0 | 0.00 | 0.37 | 0.00 | 1 | 1004.7 |
| 20260507111845 | 48 | 33 | 4.0 | 8.0 | 0.00 | 0.37 | 0.00 | 1 | 1004.0 |
| 20260507110349 | 48 | 337 | 6.0 | 13.0 | 0.00 | 0.37 | 0.37 | 1 | 1004.2 |
| 20260507104912 | 48 | 273 | 6.0 | 10.0 | 0.00 | 0.37 | 0.37 | 1 | 1003.7 |
| 20260507103358 | 48 | 331 | 7.0 | 10.0 | 0.00 | 0.37 | 0.37 | 1 | 1003.7 |
| 20260507101841 | 49 | 355 | 4.0 | 10.0 | 0.00 | 0.37 | 0.37 | 1 | 1003.8 |
| 20260507100405 | 48 | 327 | 3.0 | 8.0 | 0.00 | 0.37 | 0.37 | 1 | 1004.1 |
| 20260507094848 | 48 | 5 | 6.0 | 17.0 | 0.00 | 0.37 | 0.37 | 1 | 1003.8 |
| 20260507093355 | 48 | 9 | 5.0 | 11.0 | 0.00 | 0.37 | 0.37 | 1 | 1003.0 |
| 20260507091859 | 49 | 342 | 6.0 | 13.0 | 0.00 | 0.37 | 0.37 | 1 | 1003.3 |
| 20260507090404 | 49 | 338 | 5.0 | 14.0 | 0.01 | 0.37 | 0.37 | 1 | 1003.4 |
| 20260507084910 | 49 | 18 | 7.0 | 13.0 | 0.01 | 0.37 | 0.37 | 1 | 1003.2 |
| 20260507083353 | 50 | 360 | 4.0 | 12.0 | 0.02 | 0.37 | 0.37 | 1 | 1003.0 |
| 20260507081920 | 50 | 341 | 5.0 | 10.0 | 0.07 | 0.37 | 0.37 | 1 | 1003.0 |
| 20260507080349 | 49 | 294 | 4.0 | 9.0 | 0.12 | 0.36 | 0.36 | 1 | 1002.8 |
| 20260507074853 | 49 | 275 | 2.0 | 11.0 | 0.17 | 0.36 | 0.36 | 1 | 1002.5 |
| 20260507073356 | 49 | 254 | 2.0 | 7.0 | 0.16 | 0.35 | 0.35 | 1 | 1001.8 |
| 20260507071844 | 49 | 240 | 3.0 | 11.0 | 0.11 | 0.30 | 0.30 | 1 | 1002.2 |
| 20260507070346 | 49 | 282 | 4.0 | 12.0 | 0.05 | 0.24 | 0.24 | 1 | 1003.2 |
| 20260507064850 | 50 | 259 | 6.0 | 14.0 | 0.01 | 0.19 | 0.19 | 1 | 1002.8 |
| 20260507063354 | 50 | 257 | 7.0 | 14.0 | 0.01 | 0.19 | 0.19 | 1 | 1002.5 |
| 20260507061841 | 50 | 214 | 6.0 | 16.0 | 0.02 | 0.19 | 0.19 | 1 | 1002.7 |
| 20260507060345 | 50 | 217 | 9.0 | 14.0 | 0.03 | 0.19 | 0.19 | 1 | 1003.0 |
| 20260507054848 | 50 | 225 | 8.0 | 15.0 | 0.02 | 0.18 | 0.18 | 1 | 1002.7 |
| 20260507053416 | 50 | 195 | 8.0 | 16.0 | 0.02 | 0.18 | 0.18 | 1 | 1002.8 |
| 20260507051917 | 51 | 233 | 9.0 | 19.0 | 0.01 | 0.17 | 0.17 | 1 | 1003.2 |
| 20260507050359 | 51 | 221 | 8.0 | 17.0 | 0.02 | 0.16 | 0.16 | 1 | 1003.4 |
| 20260507044847 | 51 | 238 | 9.0 | 20.0 | 0.03 | 0.16 | 0.16 | 1 | 1003.6 |
| 20260507043353 | 51 | 207 | 10.0 | 20.0 | 0.05 | 0.16 | 0.16 | 1 | 1003.9 |
| 20260507041918 | 51 | 244 | 11.0 | 19.0 | 0.07 | 0.16 | 0.16 | 1 | 1004.1 |
| 20260507040346 | 51 | 232 | 10.0 | 22.0 | 0.06 | 0.14 | 0.14 | 1 | 1004.1 |
| 20260507034850 | 51 | 217 | 13.0 | 26.0 | 0.07 | 0.13 | 0.13 | 1 | 1004.3 |
| 20260507033354 | 52 | 246 | 17.0 | 25.0 | 0.08 | 0.11 | 0.11 | 1 | 1004.4 |
| 20260507031840 | 52 | 229 | 10.0 | 29.0 | 0.07 | 0.09 | 0.09 | 1 | 1004.5 |
| 20260507030344 | 52 | 205 | 12.0 | 22.0 | 0.07 | 0.08 | 0.08 | 1 | 1004.9 |
| 20260507024847 | 52 | 223 | 14.0 | 22.0 | 0.05 | 0.06 | 0.06 | 1 | 1005.4 |
| 20260507023352 | 53 | 209 | 7.0 | 22.0 | 0.03 | 0.03 | 0.03 | 1 | 1006.1 |
| 20260507021841 | 53 | 231 | 12.0 | 29.0 | 0.02 | 0.02 | 0.02 | 1 | 1006.4 |
| 20260507020345 | 52 | 231 | 14.0 | 25.0 | 0.01 | 0.01 | 0.01 | 1 | 1006.7 |
| 20260507014850 | 52 | 229 | 12.0 | 19.0 | 0.01 | 0.01 | 0.01 | 1 | 1007.1 |
| 20260507013356 | 53 | 223 | 10.0 | 26.0 | 0.00 | 0.00 | 0.00 | 1 | 1007.2 |
| 20260507011840 | 52 | 208 | 8.0 | 19.0 | 0.00 | 0.00 | 0.00 | 1 | 1007.7 |
| 20260507010345 | 52 | 224 | 10.0 | 21.0 | 0.00 | 0.00 | 0.00 | 1 | 1007.9 |
| 20260507004852 | 52 | 213 | 14.0 | 25.0 | 0.00 | 0.00 | 0.00 | 1 | 1008.2 |
| 20260507003355 | 52 | 221 | 9.0 | 20.0 | 0.00 | 0.00 | 0.00 | 1 | 1008.2 |
| 20260507001841 | 52 | 254 | 10.0 | 21.0 | 0.00 | 0.00 | 0.00 | 6 | 1008.2 |
| 20260507000350 | 53 | 238 | 8.0 | 14.0 | 0.00 | 0.00 | 0.00 | 6 | 1008.3 |
| 20260506234854 | 53 | 213 | 9.0 | 22.0 | 0.00 | 0.00 | 0.00 | 12 | 1008.7 |
| 20260506233357 | 53 | 215 | 11.0 | 23.0 | 0.00 | 0.00 | 0.00 | 17 | 1009.2 |
| 20260506231845 | 54 | 209 | 9.0 | 20.0 | 0.00 | 0.00 | 0.00 | 22 | 1008.9 |
| 20260506230349 | 54 | 228 | 12.0 | 24.0 | 0.00 | 0.00 | 0.00 | 24 | 1009.3 |
| 20260506224853 | 54 | 194 | 10.0 | 25.0 | 0.00 | 0.00 | 0.00 | 26 | 1009.4 |
| 20260506223342 | 55 | 238 | 12.0 | 22.0 | 0.00 | 0.00 | 0.00 | 25 | 1009.2 |
| 20260506221847 | 55 | 227 | 11.0 | 20.0 | 0.00 | 0.00 | 0.00 | 22 | 1009.2 |
| 20260506220352 | 55 | 220 | 8.0 | 20.0 | 0.00 | 0.00 | 0.00 | 25 | 1009.2 |
| 20260506214839 | 55 | 226 | 10.0 | 23.0 | 0.00 | 0.00 | 0.00 | 27 | 1009.5 |
| 20260506213404 | 55 | 220 | 10.0 | 24.0 | 0.00 | 0.00 | 0.00 | 27 | 1009.7 |
| 20260506211847 | 54 | 238 | 7.0 | 18.0 | 0.00 | 0.00 | 0.00 | 27 | 1009.2 |
| 20260506210354 | 54 | 217 | 9.0 | 20.0 | 0.00 | 0.00 | 0.00 | 28 | 1009.3 |
| 20260506204839 | 54 | 246 | 8.0 | 16.0 | 0.00 | 0.00 | 0.00 | 28 | 1009.3 |
| 20260506203403 | 54 | 232 | 10.0 | 21.0 | 0.00 | 0.00 | 0.00 | 30 | 1009.3 |
| 20260506201845 | 54 | 217 | 10.0 | 18.0 | 0.00 | 0.00 | 0.00 | 31 | 1009.5 |
| 20260506200353 | 54 | 255 | 13.0 | 20.0 | 0.00 | 0.00 | 0.00 | 34 | 1009.7 |
| 20260506194858 | 54 | 268 | 13.0 | 29.0 | 0.00 | 0.00 | 0.00 | 34 | 1009.7 |
| 20260506193340 | 55 | 230 | 11.0 | 25.0 | 0.00 | 0.00 | 0.00 | 37 | 1009.5 |
| 20260506191847 | 55 | 223 | 11.0 | 22.0 | 0.00 | 0.00 | 0.00 | 35 | 1009.6 |
| 20260506190348 | 55 | 217 | 13.0 | 24.0 | 0.00 | 0.00 | 0.00 | 35 | 1009.7 |
| 20260506184849 | 55 | 211 | 14.0 | 20.0 | 0.00 | 0.00 | 0.00 | 31 | 1009.8 |
| 20260506183355 | 54 | 225 | 12.0 | 23.0 | 0.00 | 0.00 | 0.00 | 31 | 1009.8 |
| 20260506181856 | 54 | 207 | 12.0 | 23.0 | 0.00 | 0.00 | 0.00 | 32 | 1009.9 |
| 20260506180359 | 55 | 239 | 13.0 | 24.0 | 0.00 | 0.00 | 0.00 | 33 | 1010.0 |
| 20260506174904 | 55 | 229 | 14.0 | 24.0 | 0.00 | 0.00 | 0.00 | 31 | 1010.1 |
| 20260506173345 | 54 | 217 | 13.0 | 21.0 | 0.00 | 0.00 | 0.00 | 27 | 1010.4 |
| 20260506171845 | 54 | 230 | 13.0 | 19.0 | 0.00 | 0.00 | 0.00 | 25 | 1010.6 |
| 20260506170351 | 54 | 197 | 11.0 | 24.0 | 0.00 | 0.00 | 0.00 | 22 | 1010.8 |
| 20260506164853 | 54 | 224 | 9.0 | 23.0 | 0.00 | 0.00 | 0.00 | 25 | 1011.0 |